Wind_Speed
15 13 11 11 10 10 9 8 9 12 15 18 19 19 19 17 18 20 19 19 18 15 14 10 5 3 4 8 10 13 16 17 18 16 15 14 14 12 11 10 10 9 8 7
15 12 13 14 12 10 9 9 10 13 15 19 20 20 19 18 17 17 16 16 16 15 13 8 4 1 3 6 11 14 15 17 17 15 15 15 15 13 12 11 11 10 10 9
14 13 16 15 13 11 8 10 12 14 17 19 21 20 19 19 16 13 13 14 14 13 12 9 5 1 2 7 11 13 15 16 17 15 15 15 14 13 12 12 12 11 10 9
14 16 18 17 15 12 10 10 13 15 17 19 20 20 19 17 13 10 10 10 10 10 11 9 5 2 2 6 9 13 15 16 17 16 16 15 15 14 14 14 13 12 11 9
13 17 19 18 15 13 13 13 15 17 18 19 19 20 19 17 13 9 7 7 8 8 9 7 5 2 3 6 9 12 14 15 16 17 16 16 16 16 15 14 13 12 11 10
14 17 18 17 16 15 13 14 15 17 17 19 18 20 16 13 8 4 3 5 6 7 7 6 5 3 3 6 9 11 13 14 15 16 16 16 16 16 15 15 13 12 11 11
16 17 17 17 16 14 14 16 17 17 17 18 18 18 14 8 4 2 2 4 5 6 6 5 4 2 3 5 8 10 12 13 14 16 16 16 16 16 16 15 14 13 12 12
16 16 17 18 16 13 13 16 18 19 19 18 18 17 14 10 6 3 3 3 5 5 5 5 4 2 3 5 7 9 11 12 14 14 15 16 17 16 16 15 15 14 13 13
16 15 16 18 17 16 14 15 16 19 20 20 19 16 12 10 8 5 4 4 4 4 4 4 3 2 2 4 6 7 9 11 12 13 14 16 16 16 16 15 15 15 15 14
21 19 17 19 20 18 17 16 18 21 21 21 19 15 14 11 9 7 4 4 3 2 2 2 2 1 1 3 4 6 8 9 11 13 13 14 16 15 16 16 16 16 15 15
27 24 19 21 23 21 19 19 21 21 21 22 20 17 14 13 11 8 6 5 3 1 0 1 0 0 1 2 4 5 6 7 9 12 12 14 16 15 16 17 17 17 17 17
31 29 26 24 23 23 23 22 23 22 23 23 23 20 16 14 12 10 6 4 4 2 2 2 2 2 2 3 4 5 7 8 9 11 12 14 16 16 17 17 17 18 18 19
35 35 32 28 26 27 26 25 24 24 25 24 24 22 18 16 12 11 8 6 5 4 4 4 4 4 5 5 5 6 8 9 10 12 13 14 16 17 19 19 19 19 20 21
40 39 37 34 30 29 29 28 27 27 27 26 24 22 20 18 15 12 9 7 7 5 5 5 5 6 6 7 7 8 9 10 11 12 13 15 16 18 19 20 21 21 22 22
43 42 40 38 34 32 32 31 30 28 26 25 23 23 20 18 16 14 12 9 9 9 8 8 8 8 8 9 9 9 10 11 12 13 14 16 17 19 20 21 22 23 23 23
44 45 44 41 38 36 34 33 31 30 28 26 24 23 21 18 16 15 14 11 11 10 10 10 10 10 10 11 11 12 12 13 14 15 16 17 18 20 21 22 22 23 25 25
45 46 45 43 40 39 38 35 33 31 30 28 26 23 21 20 18 17 15 13 12 12 11 11 12 12 13 13 13 14 15 16 16 17 17 19 20 21 23 23 24 25 26 27
43 45 46 44 42 42 38 36 34 33 31 29 27 25 22 20 19 18 17 15 13 13 13 14 14 14 15 16 16 17 17 18 18 19 20 21 22 22 23 24 25 27 28 29
39 41 43 43 43 43 39 36 34 33 31 27 25 24 22 21 20 19 18 16 15 15 15 15 16 16 17 18 18 19 20 21 21 20 22 22 23 24 25 25 25 27 28 29
32 37 39 39 39 39 37 34 33 30 28 27 26 24 25 24 22 19 18 17 16 16 16 17 17 18 18 19 19 21 22 23 23 23 24 25 25 27 27 27 28 28 30 31
27 32 36 38 38 37 33 31 30 30 27 26 24 24 24 25 23 20 17 16 16 16 17 17 19 20 21 21 21 22 23 24 25 27 28 29 29 29 30 30 30 31 32 32
24 27 32 36 36 34 30 29 29 28 27 25 25 24 24 24 22 20 18 16 16 16 17 18 19 21 21 22 23 24 25 25 27 28 29 30 31 33 33 32 32 32 33 34
19 22 25 28 29 29 28 29 28 27 27 25 24 23 22 20 18 18 18 18 18 18 19 20 20 21 22 23 24 24 25 27 27 28 29 31 32 33 32 33 34 34 35 34
15 17 20 22 22 22 22 23 24 24 25 24 23 21 20 19 18 17 18 19 20 20 20 21 21 22 23 24 25 26 27 28 29 30 31 32 33 33 34 34 34 35 35 36
11 12 12 15 18 19 19 19 20 21 21 20 22 21 18 16 18 18 18 19 20 21 21 21 22 23 23 24 25 27 28 29 30 31 32 33 33 33 34 35 35 36 36 37
8 8 8 9 12 13 13 14 14 15 16 17 16 15 14 16 17 17 18 19 20 21 22 22 23 24 25 26 27 28 29 29 30 30 31 32 33 33 34 34 36 36 37 38
Wind_Direction
261 260 257 250 246 250 261 282 307 313 313 314 314 315 316 317 326 332 334 338 343 342 338 336 319 274 232 213 208 203 202 197 193 194 197 198 199 201 201 198 194 188 182 178
256 254 241 238 239 249 266 283 294 298 303 304 306 309 310 310 319 327 331 338 344 345 345 344 344 269 214 213 199 193 194 194 190 192 195 197 198 198 196 192 186 183 181 178
249 237 237 236 238 246 263 282 288 292 295 299 300 303 305 306 313 324 332 342 343 349 353 355 357 7 187 193 188 192 193 189 187 190 193 195 192 188 190 186 183 182 182 181
245 239 240 240 244 248 257 269 283 287 292 295 298 305 306 303 300 318 332 346 351 355 357 359 7 48 145 173 187 190 190 189 190 191 189 190 189 188 187 185 184 185 187 187
245 239 240 241 241 245 254 265 275 281 288 295 300 305 312 304 298 306 327 354 8 6 6 8 28 78 143 162 175 183 185 188 193 194 190 189 191 189 187 188 189 190 193 195
245 243 244 245 238 238 249 260 269 277 285 294 302 308 315 308 303 294 332 8 16 19 21 25 39 77 138 158 173 182 185 191 194 194 194 191 192 192 192 193 196 197 199 203
241 238 242 243 241 238 246 257 269 276 284 296 306 312 322 328 330 338 4 23 26 30 30 26 25 71 135 152 163 176 183 189 192 192 192 192 195 196 197 200 203 205 208 210
243 236 237 237 237 239 247 258 267 277 289 298 306 312 316 322 322 339 10 27 26 34 37 31 37 74 136 146 156 168 178 184 188 192 195 198 200 200 202 205 209 211 214 216
253 237 231 233 231 236 243 254 266 275 282 289 300 309 313 316 320 331 359 11 14 29 45 42 39 52 114 143 157 170 179 187 193 195 198 200 202 204 207 211 214 217 220 223
258 247 227 229 231 234 243 249 260 269 275 282 290 301 308 316 320 316 327 341 1 32 43 42 48 57 126 168 175 181 187 195 201 201 203 205 206 210 215 217 219 223 227 230
248 248 230 226 231 236 243 248 258 268 274 281 286 292 301 302 308 308 316 317 318 296 304 333 296 148 208 206 199 194 199 203 203 204 211 214 216 219 221 222 225 231 234 236
243 247 242 234 235 240 245 250 254 260 269 277 280 286 291 295 298 304 298 302 312 293 263 269 265 251 246 236 231 228 222 218 216 219 223 224 225 228 231 231 234 238 240 242
239 244 246 240 236 238 244 247 252 257 262 267 274 280 287 292 285 291 287 290 303 282 273 255 259 262 256 245 239 238 235 233 231 233 235 236 236 236 238 240 240 244 247 249
239 241 243 242 240 240 244 249 252 257 260 264 269 274 279 286 282 282 286 289 292 283 268 253 258 263 261 253 246 244 245 244 243 243 243 243 244 244 245 245 247 249 251 253
240 241 242 244 244 242 243 248 252 256 263 265 266 269 272 274 274 275 278 281 287 279 270 262 266 266 267 261 257 252 252 251 251 251 249 250 251 251 250 250 251 252 253 255
239 242 243 244 244 245 246 249 252 256 261 263 264 264 267 267 268 268 273 277 278 277 275 268 266 267 270 265 262 261 259 257 256 257 257 257 257 257 255 254 255 256 257 258
238 242 243 243 243 245 245 246 251 254 259 260 258 259 263 263 266 272 275 273 268 270 273 267 263 260 262 264 264 264 265 265 264 263 263 262 260 260 258 257 258 260 260 261
238 241 242 243 243 244 244 244 247 251 254 255 257 261 260 260 263 269 271 270 264 268 269 266 264 268 266 267 267 266 267 264 267 268 267 266 263 265 264 262 263 265 264 263
238 239 238 241 242 243 245 244 245 248 249 253 258 260 261 261 265 268 265 263 265 270 269 268 269 270 271 271 272 272 271 268 269 272 271 270 269 270 270 269 270 268 267 267
239 238 238 239 241 244 243 243 244 246 247 251 257 257 257 261 259 262 264 264 265 266 269 272 275 277 276 275 275 274 274 275 274 273 272 271 273 272 271 271 271 271 270 270
241 238 237 237 240 243 241 242 241 243 249 253 256 258 256 259 257 256 258 261 262 267 270 273 274 275 276 276 276 274 274 275 276 277 275 274 273 273 272 272 271 271 270 271
245 241 236 236 238 240 240 242 243 246 248 252 254 255 256 258 254 254 256 259 262 267 272 274 274 273 275 275 275 276 276 276 277 278 277 277 278 278 275 274 273 272 272 272
245 239 235 235 237 239 240 242 240 243 249 252 255 258 259 256 251 248 253 260 263 268 272 274 274 274 274 276 276 278 279 278 277 278 279 278 281 283 279 278 277 277 276 275
241 234 237 235 235 237 235 233 236 240 244 245 247 252 254 253 248 251 256 260 264 269 270 272 273 274 275 277 279 281 281 281 281 281 281 281 280 281 281 281 281 282 278 276
235 236 235 232 236 245 241 236 236 236 241 243 246 248 244 246 251 255 258 260 264 268 270 272 273 275 277 278 280 282 282 282 282 282 281 280 281 281 282 280 280 281 279 276
224 221 224 232 233 234 239 239 233 231 233 237 238 235 244 251 254 256 257 260 264 267 270 273 274 276 279 281 283 284 283 283 282 282 282 281 280 280 281 281 281 280 280 280
Height
5881 5883 5882 5881 5881 5881 5880 5878 5878 5878 5876 5874 5872 5870 5868 5865 5863 5860 5857 5853 5849 5845 5842 5838 5836 5835 5835 5837 5838 5840 5844 5848 5852 5856 5860 5863 5866 5868 5870 5872 5873 5875 5876 5878
5878 5879 5878 5877 5877 5877 5876 5876 5876 5876 5874 5872 5869 5867 5866 5864 5861 5859 5856 5852 5848 5844 5840 5837 5836 5835 5835 5836 5838 5839 5842 5846 5851 5855 5858 5861 5864 5866 5868 5870 5872 5873 5875 5877
5873 5875 5873 5873 5873 5873 5873 5874 5874 5874 5872 5869 5867 5865 5863 5862 5859 5857 5854 5850 5846 5843 5839 5837 5836 5835 5834 5835 5837 5839 5842 5846 5849 5853 5857 5859 5861 5864 5867 5869 5871 5873 5874 5876
5868 5869 5869 5869 5869 5869 5869 5871 5871 5870 5869 5867 5865 5862 5861 5858 5856 5855 5852 5848 5844 5842 5839 5837 5835 5835 5835 5835 5836 5838 5841 5845 5848 5852 5855 5858 5860 5863 5866 5868 5870 5872 5873 5875
5864 5864 5864 5864 5865 5865 5866 5867 5867 5867 5866 5864 5862 5860 5858 5854 5853 5852 5850 5847 5844 5841 5838 5836 5835 5835 5835 5835 5836 5837 5840 5844 5848 5851 5854 5857 5859 5862 5865 5867 5869 5871 5872 5874
5859 5859 5860 5861 5861 5862 5862 5863 5863 5863 5862 5861 5860 5858 5855 5851 5850 5849 5848 5845 5843 5841 5839 5837 5837 5836 5836 5836 5837 5838 5841 5844 5847 5850 5853 5855 5858 5861 5864 5866 5868 5870 5871 5872
5854 5855 5856 5857 5857 5858 5859 5860 5860 5859 5858 5858 5857 5855 5854 5850 5848 5846 5846 5844 5842 5840 5839 5838 5838 5837 5836 5837 5837 5839 5841 5844 5846 5849 5852 5854 5857 5860 5862 5864 5866 5868 5869 5870
5848 5851 5852 5852 5853 5854 5855 5856 5856 5856 5855 5854 5853 5851 5851 5849 5847 5845 5844 5842 5841 5840 5839 5838 5838 5837 5837 5837 5838 5840 5841 5843 5846 5848 5851 5853 5856 5858 5860 5862 5864 5866 5867 5868
5843 5846 5847 5848 5849 5850 5850 5851 5853 5852 5851 5850 5849 5849 5848 5847 5845 5844 5842 5841 5840 5839 5839 5839 5838 5838 5838 5838 5839 5840 5842 5843 5845 5847 5849 5852 5854 5856 5858 5860 5861 5863 5864 5865
5836 5839 5842 5843 5844 5845 5846 5847 5848 5848 5847 5846 5846 5845 5845 5844 5843 5843 5841 5840 5839 5838 5839 5839 5838 5838 5838 5839 5839 5840 5842 5843 5844 5846 5848 5850 5852 5854 5856 5857 5858 5860 5861 5862
5828 5831 5835 5837 5838 5840 5841 5842 5842 5843 5843 5842 5842 5844 5842 5841 5841 5840 5839 5839 5838 5838 5837 5838 5838 5838 5838 5838 5839 5840 5841 5842 5842 5844 5846 5847 5849 5850 5852 5853 5855 5856 5857 5858
5822 5824 5827 5831 5834 5835 5836 5836 5837 5839 5839 5838 5838 5842 5839 5838 5838 5837 5837 5837 5837 5836 5837 5837 5837 5837 5837 5837 5838 5839 5839 5840 5841 5842 5844 5844 5846 5847 5849 5849 5851 5852 5853 5854
5816 5817 5819 5823 5828 5830 5829 5830 5831 5833 5834 5833 5833 5837 5834 5834 5834 5834 5834 5834 5834 5835 5835 5835 5835 5836 5836 5836 5836 5837 5837 5838 5839 5840 5841 5842 5842 5844 5845 5845 5847 5848 5848 5849
5808 5810 5813 5815 5819 5822 5823 5824 5826 5827 5828 5828 5829 5830 5830 5831 5831 5831 5831 5831 5831 5832 5832 5832 5833 5833 5834 5834 5834 5834 5835 5835 5836 5836 5837 5838 5839 5839 5840 5841 5842 5842 5843 5843
5800 5802 5804 5807 5811 5814 5817 5818 5820 5821 5822 5822 5824 5824 5825 5826 5827 5827 5827 5827 5827 5828 5829 5829 5829 5830 5831 5831 5831 5831 5831 5831 5832 5832 5833 5833 5833 5834 5835 5835 5836 5836 5836 5836
5791 5794 5797 5800 5804 5806 5809 5811 5813 5815 5816 5817 5818 5819 5820 5820 5821 5822 5822 5822 5823 5824 5824 5825 5825 5826 5827 5827 5827 5827 5827 5827 5828 5828 5828 5828 5828 5828 5829 5829 5829 5829 5829 5829
5782 5785 5788 5791 5795 5797 5801 5804 5806 5808 5809 5811 5812 5814 5814 5815 5816 5817 5818 5817 5818 5819 5820 5821 5821 5821 5822 5822 5822 5822 5822 5822 5822 5823 5822 5822 5822 5822 5822 5822 5822 5821 5821 5821
5773 5776 5778 5782 5787 5789 5795 5797 5799 5801 5802 5804 5806 5808 5808 5809 5810 5811 5812 5812 5812 5814 5815 5816 5816 5816 5816 5816 5816 5816 5816 5816 5816 5816 5816 5816 5815 5815 5815 5814 5814 5814 5812 5812
5764 5766 5769 5773 5776 5779 5785 5789 5791 5794 5796 5797 5799 5801 5802 5803 5804 5804 5805 5807 5808 5809 5810 5811 5811 5811 5811 5810 5810 5810 5810 5810 5810 5810 5810 5809 5808 5808 5807 5807 5806 5805 5804 5803
5755 5758 5761 5764 5767 5770 5778 5781 5784 5787 5788 5791 5793 5795 5796 5797 5799 5800 5800 5801 5802 5803 5803 5804 5804 5804 5804 5804 5804 5804 5803 5803 5803 5803 5803 5802 5802 5801 5800 5799 5797 5796 5795 5795
5748 5750 5752 5755 5759 5763 5769 5772 5776 5780 5784 5785 5786 5788 5790 5790 5792 5793 5794 5794 5796 5797 5797 5797 5798 5798 5798 5798 5798 5797 5797 5796 5796 5795 5794 5793 5793 5792 5791 5789 5788 5787 5786 5785
5741 5743 5746 5749 5752 5759 5762 5765 5770 5773 5776 5777 5779 5780 5782 5783 5783 5786 5788 5789 5790 5790 5791 5791 5791 5791 5791 5791 5791 5790 5789 5788 5787 5786 5785 5783 5783 5782 5780 5778 5778 5776 5776 5775
5735 5738 5741 5744 5748 5752 5755 5758 5762 5765 5768 5771 5772 5773 5775 5776 5777 5779 5782 5783 5784 5784 5784 5785 5785 5784 5784 5783 5783 5782 5781 5780 5779 5778 5776 5775 5774 5772 5770 5769 5768 5766 5766 5765
5732 5734 5736 5738 5742 5744 5747 5750 5754 5758 5761 5763 5766 5768 5769 5771 5772 5773 5775 5776 5777 5778 5778 5778 5778 5777 5777 5776 5775 5774 5773 5772 5770 5769 5768 5766 5765 5763 5762 5760 5758 5757 5755 5753
5729 5730 5732 5733 5737 5740 5742 5745 5749 5751 5754 5756 5758 5761 5763 5765 5766 5767 5768 5770 5770 5771 5771 5771 5770 5770 5769 5768 5767 5766 5764 5763 5761 5760 5758 5757 5755 5754 5752 5750 5749 5747 5745 5743
5726 5728 5730 5732 5734 5737 5739 5741 5744 5746 5748 5751 5753 5755 5756 5759 5760 5761 5763 5763 5764 5764 5764 5763 5763 5762 5761 5760 5758 5757 5755 5754 5752 5750 5748 5747 5745 5744 5742 5740 5738 5736 5734 5732